Wind_Speed
35 42 44 42 37 40 38 34 36 38 38 35 32 29 28 27 26 25 23 21 19 15 13 11 9 6 5 3 2 5 9 6
30 39 45 45 40 40 47 42 38 42 43 40 37 34 30 29 28 26 25 22 19 16 13 11 10 7 5 6 6 9 9 4
31 42 45 45 44 37 46 40 38 44 45 43 38 34 30 29 27 27 25 21 19 16 14 11 11 8 8 8 9 12 9 6
36 40 46 44 45 50 46 50 42 48 49 46 41 36 33 32 30 28 24 22 21 18 16 14 12 10 10 9 10 11 9 7
42 37 44 49 45 49 50 49 51 50 53 49 42 40 36 31 28 25 24 23 23 20 17 15 13 12 12 10 11 11 9 10
42 39 41 48 51 48 36 39 52 52 53 52 45 40 34 27 26 26 25 26 24 20 18 16 16 14 13 11 11 10 10 10
39 40 34 38 46 45 42 43 49 50 52 51 47 39 32 32 31 29 28 26 23 21 19 19 19 18 13 12 13 11 10 10
39 38 38 40 44 42 38 42 48 54 55 54 48 38 33 33 32 30 28 25 23 22 21 20 22 18 14 13 13 10 10 9
38 37 36 34 39 42 36 33 46 56 64 55 47 38 38 34 34 32 27 24 21 21 21 21 23 18 14 13 12 11 10 10
34 34 36 31 33 41 38 33 34 57 64 56 47 40 39 36 36 31 27 26 25 24 23 23 24 19 14 13 12 10 10 10
34 37 35 33 33 39 37 39 34 49 58 56 44 39 40 37 36 33 33 30 29 27 26 26 25 20 16 15 13 11 11 11
35 33 32 36 34 39 39 35 33 44 58 50 43 42 41 39 37 34 32 31 30 27 26 27 25 21 19 15 12 13 12 12
36 35 35 37 35 40 41 37 23 41 53 46 42 45 42 41 38 35 33 31 30 27 27 27 25 22 19 16 13 14 12 12
34 34 35 36 36 34 35 33 32 33 45 48 46 45 42 40 39 36 33 32 30 28 28 27 25 22 18 15 15 16 14 13
27 29 34 39 36 31 32 32 35 23 32 49 47 43 44 41 39 35 33 33 30 29 27 26 24 21 19 17 17 16 15 14
24 29 31 39 36 33 30 29 26 22 24 50 47 42 44 44 39 34 34 34 31 28 28 26 23 20 18 17 17 16 16 16
27 27 26 33 32 33 32 30 16 22 32 50 49 45 48 43 38 35 35 35 33 31 30 27 23 20 18 17 17 18 17 17
22 24 27 34 32 32 34 33 34 26 37 43 57 47 40 39 38 36 37 38 35 33 31 28 24 22 21 20 18 18 17 17
18 21 28 29 29 30 32 38 40 33 45 45 41 43 43 40 38 36 38 39 36 34 33 29 27 25 24 23 21 20 19 18
Wind_Direction
238 230 228 236 239 231 228 227 215 216 217 211 210 210 210 207 205 204 202 203 203 208 222 232 240 251 237 253 226 199 179 180
248 239 236 237 233 242 241 229 215 215 221 214 209 210 210 209 202 204 204 204 207 208 219 230 240 234 226 239 224 197 191 207
236 235 235 234 234 240 241 233 225 219 221 221 212 212 210 210 204 203 203 204 210 212 217 220 230 229 232 230 218 195 195 222
233 234 230 230 231 236 235 260 219 225 221 218 212 211 206 207 203 204 201 206 213 214 215 215 220 226 224 217 208 195 208 242
229 234 229 233 238 236 245 260 223 218 220 217 215 209 203 205 207 204 203 208 214 212 213 210 215 213 216 199 195 212 233 249
230 234 226 231 238 240 256 265 226 213 219 217 213 209 209 206 202 203 209 208 211 213 211 205 209 198 190 194 214 237 244 242
236 232 238 232 238 239 248 275 257 214 214 215 213 210 207 203 201 204 209 210 210 210 208 200 202 193 198 209 222 223 232 231
236 228 230 231 234 247 255 269 228 228 208 215 215 207 206 207 203 208 211 214 212 210 205 202 201 196 205 214 211 221 235 241
228 228 231 232 238 245 249 245 227 208 202 211 212 207 205 203 204 210 211 215 209 206 203 206 202 202 208 207 215 226 237 241
227 217 229 230 236 244 255 262 256 226 206 212 208 208 204 201 203 205 209 210 201 200 202 207 205 207 210 213 221 228 236 240
225 214 223 228 239 247 251 252 275 209 209 212 203 203 205 202 203 205 206 205 201 199 203 203 206 210 214 215 222 231 238 240
212 209 218 227 235 238 240 237 265 235 204 209 200 202 203 204 205 203 206 206 202 202 206 203 208 210 215 216 223 232 234 240
206 201 214 223 227 234 238 235 254 215 214 209 199 200 203 203 202 203 205 205 202 204 205 202 206 209 210 215 222 234 236 241
212 210 216 226 224 231 231 241 243 230 208 196 203 199 201 203 204 203 202 202 203 207 202 199 201 202 207 214 226 235 237 240
207 215 225 225 231 238 232 239 241 265 236 201 202 202 198 203 203 201 201 201 205 204 197 193 193 199 208 215 226 234 239 241
211 220 226 224 223 224 232 239 243 253 242 188 205 203 208 200 200 201 200 203 205 200 194 193 196 202 212 218 227 233 237 241
212 212 214 220 218 230 232 230 249 249 226 196 203 204 206 194 200 201 200 204 204 199 196 197 201 209 214 220 226 232 237 241
200 204 209 208 213 223 229 232 239 237 198 198 209 207 192 198 201 201 203 205 204 201 201 203 205 212 218 223 228 236 241 244
212 214 213 212 218 227 228 228 243 246 218 209 208 200 193 202 202 204 205 206 206 205 206 207 211 217 222 227 232 237 243 245
Height
3104 3107 3112 3116 3121 3126 3129 3132 3137 3142 3145 3148 3152 3155 3158 3161 3165 3168 3170 3173 3174 3176 3178 3180 3182 3184 3185 3185 3185 3186 3186 3188
3097 3100 3106 3109 3115 3120 3123 3123 3131 3136 3140 3141 3145 3149 3153 3156 3160 3164 3167 3170 3172 3174 3176 3178 3180 3182 3183 3183 3184 3185 3186 3188
3089 3092 3097 3103 3110 3114 3118 3121 3126 3132 3136 3140 3143 3147 3150 3154 3157 3161 3164 3166 3169 3172 3174 3177 3178 3179 3181 3181 3183 3184 3185 3187
3082 3085 3089 3096 3101 3109 3113 3115 3117 3127 3130 3136 3139 3143 3147 3149 3151 3156 3159 3163 3166 3169 3172 3175 3177 3177 3178 3179 3181 3183 3185 3186
3073 3079 3083 3087 3094 3101 3107 3108 3105 3119 3124 3129 3134 3137 3140 3144 3149 3152 3155 3160 3164 3167 3170 3172 3174 3175 3176 3178 3180 3182 3183 3184
3064 3070 3076 3084 3089 3094 3097 3100 3101 3107 3118 3123 3130 3133 3138 3143 3145 3148 3152 3157 3161 3164 3167 3170 3172 3174 3175 3176 3179 3180 3181 3183
3057 3063 3071 3076 3081 3088 3091 3084 3078 3098 3110 3118 3123 3127 3133 3137 3140 3144 3149 3154 3158 3161 3164 3167 3170 3173 3174 3176 3178 3179 3179 3181
3048 3053 3060 3068 3073 3077 3081 3080 3080 3090 3100 3112 3115 3122 3129 3134 3138 3142 3146 3150 3154 3158 3162 3164 3168 3171 3172 3174 3176 3177 3179 3179
3038 3046 3053 3061 3066 3070 3074 3078 3081 3076 3088 3102 3109 3118 3123 3129 3134 3138 3143 3148 3152 3156 3159 3162 3165 3168 3170 3171 3173 3175 3177 3177
3029 3036 3044 3054 3058 3061 3065 3067 3071 3073 3077 3092 3103 3112 3117 3123 3128 3134 3140 3144 3148 3152 3156 3159 3162 3165 3167 3169 3171 3172 3174 3175
3021 3027 3036 3046 3052 3055 3058 3061 3059 3064 3071 3083 3096 3104 3113 3119 3124 3129 3134 3139 3143 3147 3152 3155 3158 3161 3164 3166 3168 3170 3171 3172
3012 3021 3030 3040 3046 3049 3053 3057 3060 3059 3063 3078 3088 3099 3107 3113 3118 3124 3129 3134 3139 3144 3148 3151 3155 3158 3161 3163 3165 3167 3168 3169
3008 3016 3025 3033 3040 3042 3048 3054 3051 3053 3059 3072 3083 3092 3101 3107 3113 3118 3124 3130 3135 3140 3144 3147 3151 3154 3157 3160 3162 3165 3164 3166
3004 3011 3019 3027 3034 3039 3043 3048 3049 3049 3054 3064 3076 3086 3095 3102 3108 3113 3119 3125 3130 3135 3139 3142 3147 3151 3154 3156 3159 3161 3161 3163
2999 3006 3016 3022 3028 3033 3038 3042 3045 3045 3042 3055 3069 3080 3089 3096 3103 3108 3114 3120 3126 3130 3134 3138 3143 3147 3150 3152 3155 3157 3158 3159
2996 3002 3008 3016 3023 3028 3035 3038 3040 3039 3043 3049 3061 3074 3084 3090 3096 3103 3109 3116 3121 3127 3130 3134 3138 3142 3146 3148 3151 3153 3155 3156
2992 2997 3004 3011 3019 3025 3029 3032 3034 3036 3038 3046 3056 3068 3075 3081 3090 3097 3104 3110 3116 3121 3125 3129 3134 3138 3141 3144 3147 3149 3150 3152
2994 2997 3003 3008 3015 3020 3025 3030 3032 3035 3035 3043 3047 3057 3067 3078 3086 3092 3098 3104 3111 3116 3120 3125 3129 3134 3137 3139 3141 3143 3145 3147
2994 2998 3002 3008 3012 3016 3021 3023 3023 3027 3032 3038 3042 3054 3064 3072 3080 3087 3093 3099 3105 3110 3115 3119 3124 3129 3131 3134 3136 3138 3140 3142